Probability
8 19 32 39 40 42 44 44 42 43 48 49 45 38 29 22 19 18 16 14 12 10 10 9 8 7 5 3 1 0 0 0 0 0 0 0 0 0 0 1 1 1 1
15 24 36 40 40 42 45 44 41 41 42 43 42 36 30 26 22 19 17 15 12 11 11 10 10 9 7 4 2 1 1 0 0 0 0 0 0 0 0 1 1 1 1
23 30 37 39 40 42 45 44 44 40 36 35 35 32 30 29 25 22 20 17 13 11 11 11 12 12 11 8 5 3 2 1 0 0 1 1 1 0 0 0 0 0 1
26 30 34 36 40 42 45 44 44 42 36 31 29 28 28 27 26 25 22 17 12 11 11 11 12 12 12 11 8 5 4 2 1 2 2 3 2 1 1 1 1 0 0
24 26 29 36 42 45 46 44 42 40 37 32 29 27 26 25 25 25 23 17 14 13 11 10 10 10 11 12 10 8 6 5 5 5 5 4 4 2 2 2 1 1 1
21 22 28 37 44 47 47 45 42 40 38 35 32 29 27 24 22 22 21 18 16 15 12 10 9 8 9 10 10 10 9 8 8 8 6 5 4 3 3 2 2 2 2
24 24 29 38 44 46 47 46 44 40 37 35 33 31 28 24 20 19 18 16 15 14 12 11 10 9 8 9 9 9 9 9 10 10 8 6 4 4 4 3 3 4 4
27 26 30 37 41 43 44 45 42 37 33 32 30 30 28 24 19 17 16 15 14 13 12 12 12 11 10 9 8 7 8 8 9 10 9 6 4 4 5 5 5 5 6
25 25 27 31 34 36 38 39 36 32 29 27 27 29 29 26 20 16 15 14 12 11 10 11 11 11 11 10 7 7 8 8 9 10 9 7 5 4 5 6 6 6 7
23 23 24 26 28 29 29 29 29 29 27 26 26 29 30 27 21 17 15 13 11 9 8 8 8 8 10 8 6 7 9 9 9 9 8 7 5 6 8 8 6 6 6
24 23 22 23 24 24 22 22 23 25 26 26 27 28 27 24 21 19 16 14 11 9 7 5 4 4 6 7 5 6 8 9 8 7 7 7 6 7 9 9 7 6 6
24 23 21 20 19 19 19 18 19 21 23 24 25 25 23 21 19 18 16 14 12 9 6 4 3 3 4 7 8 9 8 7 6 6 6 6 6 6 8 9 8 6 6
23 22 19 16 15 16 16 18 18 18 18 20 21 21 20 19 18 16 15 14 12 9 6 5 5 4 4 8 12 12 8 7 6 5 4 4 4 4 6 8 8 6 6
21 21 18 16 15 15 16 17 17 16 15 17 19 18 18 17 16 14 13 13 12 10 9 8 6 4 4 7 9 9 7 6 7 6 4 3 3 3 5 7 8 8 8
19 19 18 16 15 15 15 16 17 16 15 17 19 18 16 14 13 12 11 11 11 12 12 11 7 4 4 4 4 4 4 5 6 6 4 3 3 3 4 6 8 8 8
16 17 17 16 15 14 14 15 17 18 17 17 18 17 15 13 12 11 11 11 11 12 13 12 8 5 3 3 3 2 2 3 4 4 4 3 3 4 4 7 10 10 9
14 15 17 18 16 14 14 15 18 20 18 15 15 14 14 14 14 13 12 11 10 10 11 10 7 4 3 3 3 2 1 1 1 2 3 4 4 5 5 8 11 12 11
11 13 16 18 17 14 13 15 17 19 18 14 12 11 12 14 16 14 11 9 9 9 10 9 6 4 3 3 2 1 0 0 1 2 3 5 5 5 5 7 9 10 10
11 13 15 16 15 14 13 13 13 14 15 13 10 9 10 12 14 12 9 7 7 9 10 10 8 6 4 3 2 1 1 1 2 3 4 5 5 4 4 6 8 8 8
12 13 14 13 12 12 12 10 7 7 8 9 7 6 8 10 10 9 8 7 7 8 10 11 10 7 4 3 3 3 2 3 3 3 4 5 5 3 3 6 9 9 9
12 12 12 10 9 8 8 6 4 4 5 5 4 4 6 7 7 7 8 8 8 9 10 10 9 7 5 4 4 3 3 3 3 3 3 4 4 4 4 6 10 11 9
9 9 8 6 5 5 5 4 3 3 4 4 3 3 3 3 5 7 8 8 9 10 10 9 8 7 6 6 5 4 3 3 1 1 2 4 4 4 5 7 9 10 8
6 6 4 2 3 3 3 2 1 1 3 4 3 2 1 1 3 6 7 7 8 9 9 8 7 6 6 6 6 5 4 2 1 0 1 1 2 2 3 5 7 7 8
4 4 3 1 2 2 1 1 0 1 2 2 2 2 1 0 1 3 4 6 7 7 7 6 6 6 6 6 6 5 4 2 1 0 0 0 0 0 1 3 4 5 6
1 2 2 1 1 1 0 0 0 2 2 2 1 1 0 0 0 2 3 4 5 6 5 4 3 4 4 4 4 4 3 2 1 0 0 0 0 0 0 1 2 3 4
0 1 2 2 1 0 0 0 0 1 2 2 1 0 0 0 1 2 4 4 5 5 3 1 2 3 3 2 2 2 1 1 0 0 0 0 0 0 0 1 2 2 1
Wind_Speed
5 8 15 15 15 15 16 15 15 15 16 16 16 16 16 16 15 15 14 13 13 12 11 10 9 8 7 7 7 7 7 6 7 7 7 7 7 7 7 7 7 5 8
8 10 15 15 15 15 15 15 15 15 15 15 15 15 15 15 14 14 13 13 12 11 10 10 9 8 7 7 7 7 7 7 6 6 7 7 7 7 8 8 8 5 9
10 10 13 15 15 15 15 15 15 15 15 15 14 14 14 14 14 13 12 12 11 10 10 9 8 8 7 7 7 7 7 7 7 6 6 3 4 7 7 8 8 9 9
10 10 11 15 15 14 15 15 14 14 14 14 14 14 14 13 13 12 12 11 10 10 9 9 8 8 7 7 7 7 6 6 6 6 3 3 3 7 8 8 9 9 9
9 8 10 15 15 14 14 14 14 13 13 13 13 13 13 12 12 11 11 11 10 9 9 9 8 8 7 7 6 6 6 6 6 5 3 2 3 6 8 9 9 10 10
7 7 9 14 14 14 14 13 14 13 12 12 12 12 12 11 11 11 10 10 9 9 9 8 8 7 7 7 7 6 6 6 5 3 3 3 3 7 9 9 10 11 10
7 6 8 13 13 13 13 13 12 12 12 11 11 11 10 10 10 10 10 10 9 9 9 8 8 7 7 7 7 7 7 7 4 3 3 3 5 8 9 10 11 12 12
7 5 6 12 12 12 12 12 11 11 11 10 10 10 10 10 9 10 9 9 8 8 8 8 8 8 7 7 7 7 7 7 5 4 4 4 6 8 10 10 11 12 13
5 5 4 5 7 10 10 10 10 10 10 10 9 9 9 9 9 9 9 8 8 8 8 8 8 8 7 7 7 7 7 8 4 3 4 4 7 9 10 11 11 12 12
4 3 3 3 3 4 5 8 9 9 9 9 9 9 8 8 8 8 7 8 8 8 8 8 7 8 7 7 7 7 7 6 3 4 3 4 8 10 10 11 12 12 12
3 2 2 2 2 2 3 5 7 8 8 8 7 8 7 4 3 4 6 8 9 9 9 9 8 8 7 7 8 8 6 3 3 3 3 6 9 10 10 11 12 13 13
3 2 3 3 3 2 3 2 2 3 3 3 2 3 3 2 2 3 4 7 8 8 8 9 8 7 6 3 5 6 3 4 4 4 4 9 10 11 11 11 12 14 14
3 2 2 3 3 3 2 1 1 1 1 2 2 2 2 2 2 2 1 3 4 5 4 4 4 3 3 3 3 3 4 4 3 3 5 10 11 12 12 12 12 13 14
2 2 2 2 3 3 2 1 1 1 1 2 2 3 2 2 3 2 2 2 2 2 2 2 2 3 4 4 4 4 5 4 4 3 5 11 11 12 13 13 13 13 13
1 1 1 2 2 2 2 2 2 2 2 2 2 2 3 3 3 3 2 2 2 2 2 2 3 3 4 4 4 5 5 6 5 5 4 10 11 12 13 13 13 14 14
2 2 1 1 1 2 2 2 2 2 2 2 2 3 3 3 2 3 2 2 2 2 3 3 3 3 4 4 5 5 6 5 6 6 6 7 11 11 12 12 13 14 14
1 1 1 2 1 1 2 2 2 2 2 2 2 2 3 3 3 2 2 2 3 3 3 3 3 3 3 4 5 5 5 5 5 6 6 5 5 8 10 10 11 11 13
1 0 1 1 1 1 0 1 1 1 1 1 1 2 3 3 3 2 2 2 2 2 2 2 2 3 3 3 4 4 3 3 5 5 4 4 4 4 6 8 8 9 10
2 1 1 1 1 1 1 0 0 0 0 1 1 1 2 2 2 2 2 2 2 1 1 2 2 2 3 3 4 4 3 3 4 4 4 4 4 4 3 5 8 8 9
3 2 2 2 1 1 1 1 1 1 1 1 1 1 1 1 2 2 2 2 1 1 1 1 2 2 2 2 3 3 3 3 3 3 4 3 3 4 4 4 4 5 8
3 2 2 2 2 1 1 0 0 1 1 1 1 2 1 1 2 2 2 2 1 2 2 2 2 2 2 1 1 2 3 3 3 3 3 3 3 4 3 4 3 3 3
3 3 2 2 2 1 1 0 0 0 1 1 1 2 2 2 2 2 2 2 2 1 1 1 2 1 1 1 1 0 2 3 2 3 3 3 4 4 4 5 4 4 4
3 2 2 2 2 1 1 1 2 2 1 1 1 2 2 2 2 2 2 2 2 2 2 2 2 2 2 1 1 2 1 2 3 2 3 3 4 4 4 4 5 5 5
3 3 2 2 1 1 1 2 1 1 2 3 2 2 2 2 3 2 2 1 1 1 2 2 2 2 2 2 1 2 2 2 2 3 2 2 3 4 5 4 5 5 5
3 3 3 2 2 2 1 0 0 1 2 2 2 2 2 2 2 2 2 2 2 2 2 2 2 2 2 2 2 2 2 2 3 3 4 3 3 3 4 4 4 4 4
4 3 3 3 3 2 2 1 1 2 2 2 3 2 2 2 2 2 2 2 2 2 2 2 3 3 3 3 3 2 2 2 2 2 4 4 4 3 3 3 4 4 3
Wind_Direction
173 163 163 158 152 145 140 135 132 130 129 129 131 134 138 141 144 147 149 152 153 154 154 154 155 155 155 155 154 157 157 157 160 167 171 173 172 169 168 166 166 166 163
155 158 161 159 155 149 144 140 137 135 134 134 135 137 140 142 145 147 149 152 155 157 158 159 160 160 159 158 158 160 162 163 165 172 175 178 180 178 179 177 177 173 171
145 154 158 159 157 153 149 146 143 142 140 138 139 140 143 145 147 150 152 155 158 162 163 164 165 164 162 162 163 166 168 170 171 175 174 175 187 187 186 183 179 179 176
144 149 157 160 160 158 154 151 149 148 146 145 146 147 149 151 153 156 159 161 164 167 168 169 172 169 168 169 173 175 176 177 179 182 167 179 195 196 195 190 187 185 181
139 146 160 161 161 159 158 157 156 155 154 153 154 154 156 158 160 163 165 168 171 173 175 176 178 178 177 177 180 183 186 190 192 183 166 190 212 211 204 198 192 188 183
136 145 161 161 162 161 162 163 162 162 163 162 161 162 163 166 168 171 174 177 179 182 184 185 185 185 187 187 188 191 194 200 197 175 180 203 214 218 212 206 200 194 189
144 151 162 162 163 164 166 167 166 167 168 169 168 170 172 175 177 180 183 186 188 190 192 194 193 195 198 198 199 203 205 209 192 187 200 214 220 226 222 214 206 200 196
144 148 161 168 168 168 169 169 168 170 171 173 174 177 181 184 187 190 192 195 197 199 202 203 201 204 211 211 210 211 215 218 211 207 215 220 223 227 224 218 208 204 204
131 140 151 167 174 175 173 173 174 174 176 178 179 182 189 193 196 198 200 199 201 205 211 212 208 211 216 219 217 220 227 229 214 208 223 220 225 224 225 221 213 209 208
111 139 153 153 160 170 179 183 184 184 185 184 184 185 190 200 204 205 205 211 212 214 219 223 222 221 221 222 223 227 233 239 227 218 230 232 230 230 232 225 219 215 212
121 142 152 156 161 164 179 192 190 192 192 189 189 191 190 194 202 210 216 220 224 225 227 229 229 229 226 226 226 229 232 226 228 232 234 243 242 240 236 229 225 221 218
164 175 170 173 172 172 192 183 185 192 187 185 180 189 185 177 197 210 227 231 234 232 233 234 232 232 230 223 229 229 223 223 229 236 241 248 250 248 242 235 229 226 223
179 182 194 189 177 180 189 176 177 180 175 190 191 191 184 178 197 217 229 245 246 243 240 241 237 227 219 217 220 222 225 224 230 240 248 251 253 253 247 241 233 228 226
158 191 199 186 185 190 183 181 175 182 189 203 207 204 195 202 203 207 214 232 233 236 236 233 233 230 226 224 222 227 232 231 233 237 247 253 254 254 251 246 239 232 230
159 202 199 182 185 188 182 196 189 198 203 215 223 218 206 211 219 214 214 222 237 236 230 229 232 235 237 239 235 235 240 238 241 240 246 252 253 252 252 248 242 236 233
194 210 199 175 178 176 190 201 202 200 198 198 220 229 217 214 218 212 212 218 225 227 232 227 228 236 242 243 244 241 241 242 242 243 244 251 253 252 253 250 245 241 238
224 199 200 181 153 180 208 215 214 203 193 203 214 233 228 213 208 210 217 227 230 229 230 227 228 230 241 248 249 248 243 247 249 247 248 246 250 253 253 252 251 244 242
66 75 171 190 146 135 139 224 236 194 191 208 201 217 223 210 203 207 224 246 246 228 222 227 224 226 239 249 254 254 249 248 254 249 248 247 242 248 253 253 249 243 241
77 95 71 65 98 110 67 13 326 297 201 215 215 226 225 207 199 194 217 241 245 226 226 238 225 220 232 250 256 253 251 247 250 251 247 245 241 240 244 253 246 242 242
56 62 66 62 68 100 110 63 17 2 326 296 258 250 245 224 213 207 225 238 221 219 236 234 241 231 232 251 264 269 264 257 251 249 245 242 240 240 239 248 248 247 247
42 44 37 53 45 58 63 87 309 302 304 303 284 275 266 254 232 215 233 239 207 211 235 226 222 241 253 240 267 298 292 268 257 252 245 241 246 245 239 237 239 242 249
19 21 19 18 31 29 8 253 224 243 279 267 282 297 291 268 253 226 223 234 218 212 230 218 194 208 244 190 174 286 313 313 287 262 248 241 248 246 246 243 237 234 238
356 353 349 353 4 16 23 36 16 6 343 326 303 291 287 276 267 246 232 228 225 207 234 239 208 196 221 230 197 176 206 257 298 289 254 247 250 248 253 251 242 240 237
332 345 355 348 357 356 44 63 52 337 295 278 272 269 281 277 272 258 235 225 223 216 231 248 226 218 205 223 234 227 223 217 244 288 289 265 260 254 255 254 252 246 239
338 351 355 359 354 342 4 55 15 287 280 291 294 294 294 280 269 264 238 223 220 225 233 237 221 210 209 217 220 228 238 243 233 240 277 290 282 261 254 247 243 242 236
348 356 2 358 343 336 333 312 266 268 269 294 298 295 293 295 286 277 256 235 229 234 237 235 227 222 219 220 226 221 217 224 228 226 253 273 282 281 274 254 239 239 238